Bennett, North Carolina
Current Conditions -  °F | °C
As of 12:35 AM on Sunday 26 Oct 2014 (Local Time) from K5W8 Reporting Station
Clear Clear  
Wind Chill: 44°   Ceiling: Unl
Heat Index: 44°   Visibility: 10mi
Dew Point: 43°   Wind: 0mph
Humidity: 94%   Direction: NA
Pressure: 29.89"   Gusts: NA
Location:  35.57°N, 79.54°W
Report Text: K5W8 260435Z AUTO 00000KT 10SM CLR 07/06 A2989 RMK AO2 T00690060
Loading
Personal Weather Stations






























Interactive Weather Map
Tropical Storm Tracking
New forecast layout! Learn more

10-Day Weather Forecast

Advertisements
Track Severe Weather on mobile